Torna al catalogo

STARLINK-32798

AttivoComunicazioniVLEO
NORAD 63029·PAYLOAD·🇺🇸 United States

Lanciato Feb 18, 2025 da Cape Canaveral Space Force Station

Loading…

Prossimi Passaggi (prossime 24 ore)

TLE

AggiornatoSource: CelesTrak SupGP

Epoca: Sep 15, 2026, 02:23 UTC

1 63029C 25034A   26258.09979167  .00028338  00000+0  83716-3 0  2584
2 63029  53.1575 108.6170 0001290  78.3710 211.4034 15.34379809    14

Traccia STARLINK-32798 in tempo reale con AllMySat

Download on the App Store